DLH447 KDEN-EDDF

Flight info

Callsign DLH447
Flight time N/A
Altitude 37000
Route CHUWY1 CHUWY DCT KD75Y DCT KP87A DCT GABOV DCT 5230N09000W 5730N08000W 61N070W/N0497F390 DCT FEDDY DCT IKMAN/M085F390 DCT EMBOK DCT 64N050W 64N040W 6330N03000W 62N020W DCT ORTAV/N0487F390 DCT ODPEX/N0487F410 DCT TOPPA DCT SOGPO DCT DIXAT DIXAT1A
Aircraft A359/H-SDE2E3GHIJ3J4J5LM1ORWXY/LB1D1

Departure

Time N/A
Airport Denver International Airport (KDEN)

Arrival

Time 2026-05-04 13:09
Airport Frankfurt Main Airport (EDDF)
Time Latitude Longitude Altitude Speed Heading
2026-05-04 12:04 55.20872 0.32774 41067 ft 499 kts 133°
2026-05-04 12:05 55.16205 0.41706 41067 ft 499 kts 133°
2026-05-04 12:05 55.11513 0.50651 41069 ft 499 kts 133°
2026-05-04 12:06 55.06802 0.59601 41070 ft 499 kts 133°
2026-05-04 12:06 55.02095 0.68508 41070 ft 499 kts 134°
2026-05-04 12:07 54.97392 0.77376 41067 ft 498 kts 134°
2026-05-04 12:07 54.92689 0.86212 41072 ft 497 kts 134°
2026-05-04 12:08 54.87994 0.94999 41072 ft 497 kts 134°
2026-05-04 12:08 54.83282 1.03784 41072 ft 497 kts 134°
2026-05-04 12:09 54.78544 1.12587 41072 ft 497 kts 134°
2026-05-04 12:09 54.73827 1.21319 41063 ft 497 kts 134°
2026-05-04 12:10 54.69083 1.30068 41072 ft 497 kts 134°
2026-05-04 12:10 54.64357 1.38752 41072 ft 497 kts 134°
2026-05-04 12:11 54.59607 1.47447 41072 ft 497 kts 134°
2026-05-04 12:11 54.54878 1.56073 41070 ft 497 kts 134°
2026-05-04 12:12 54.50147 1.64673 41069 ft 497 kts 135°
2026-05-04 12:12 54.45383 1.73302 41069 ft 497 kts 135°
2026-05-04 12:14 54.26316 2.07524 41067 ft 496 kts 135°
2026-05-04 12:15 54.21519 2.16058 41062 ft 496 kts 135°
2026-05-04 12:15 54.16744 2.24521 41065 ft 495 kts 135°
2026-05-04 12:16 54.11970 2.32953 41061 ft 495 kts 135°
2026-05-04 12:16 54.07179 2.41386 41061 ft 495 kts 135°
2026-05-04 12:17 54.02371 2.49817 41057 ft 495 kts 136°
2026-05-04 12:17 53.97581 2.58189 41055 ft 495 kts 136°
2026-05-04 12:18 53.92753 2.66597 41052 ft 494 kts 136°
2026-05-04 12:18 53.87968 2.74901 41046 ft 494 kts 136°
2026-05-04 12:19 53.83147 2.83236 41039 ft 494 kts 136°
2026-05-04 12:19 53.78333 2.91532 41040 ft 494 kts 136°
2026-05-04 12:20 53.73511 2.99812 41037 ft 494 kts 136°
2026-05-04 12:20 53.68695 3.08054 41026 ft 494 kts 136°
2026-05-04 12:21 53.63861 3.16299 41042 ft 494 kts 136°
2026-05-04 12:21 53.59031 3.24507 41041 ft 494 kts 136°
2026-05-04 12:22 53.54178 3.32726 41045 ft 494 kts 136°
2026-05-04 12:22 53.49340 3.40892 41044 ft 494 kts 137°
2026-05-04 12:23 53.44501 3.49031 41045 ft 494 kts 137°
2026-05-04 12:23 53.39658 3.57153 41045 ft 494 kts 137°
2026-05-04 12:24 53.35071 3.65791 41042 ft 495 kts 131°
2026-05-04 12:24 53.30774 3.74580 41034 ft 495 kts 131°
2026-05-04 12:25 53.26359 3.83459 41029 ft 495 kts 132°
2026-05-04 12:25 53.21932 3.92158 41020 ft 495 kts 133°
2026-05-04 12:26 53.18182 3.99452 41012 ft 495 kts 133°
2026-05-04 12:26 53.13701 4.08133 41015 ft 494 kts 133°
2026-05-04 12:27 53.09197 4.16837 41020 ft 495 kts 133°
2026-05-04 12:27 53.04694 4.25512 41015 ft 495 kts 133°
2026-05-04 12:28 53.00197 4.34148 41015 ft 495 kts 133°
2026-05-04 12:28 52.95700 4.42755 41009 ft 495 kts 133°
2026-05-04 12:29 52.91189 4.51357 41019 ft 495 kts 133°
2026-05-04 12:29 52.86648 4.59985 40992 ft 495 kts 133°
2026-05-04 12:30 52.82139 4.68525 41004 ft 495 kts 133°
2026-05-04 12:30 52.77592 4.77105 41017 ft 495 kts 133°
2026-05-04 12:31 52.73063 4.85624 41004 ft 495 kts 134°
2026-05-04 12:31 52.68534 4.94113 41004 ft 495 kts 134°
2026-05-04 12:32 52.61677 5.06911 40987 ft 495 kts 134°
2026-05-04 12:33 52.57130 5.15361 40991 ft 494 kts 134°
2026-05-04 12:33 52.52582 5.23785 40988 ft 494 kts 134°
2026-05-04 12:34 52.47998 5.32246 40991 ft 494 kts 134°
2026-05-04 12:34 52.43464 5.40586 40993 ft 494 kts 134°
2026-05-04 12:35 52.38901 5.48953 40986 ft 494 kts 135°
2026-05-04 12:35 52.34314 5.57335 40990 ft 491 kts 135°
2026-05-04 12:36 52.29778 5.65597 40986 ft 490 kts 135°
2026-05-04 12:36 52.25201 5.73903 40988 ft 490 kts 135°
2026-05-04 12:37 52.20642 5.82151 40990 ft 490 kts 135°
2026-05-04 12:37 52.16086 5.90365 40968 ft 490 kts 135°
2026-05-04 12:38 52.11520 5.98571 40961 ft 490 kts 135°
2026-05-04 12:38 52.06925 6.06801 40967 ft 490 kts 135°
2026-05-04 12:39 52.02351 6.14968 40979 ft 489 kts 136°
2026-05-04 12:39 51.97765 6.23097 40976 ft 489 kts 137°
2026-05-04 12:40 51.92680 6.30308 40981 ft 485 kts 144°
2026-05-04 12:40 51.87432 6.37208 40977 ft 485 kts 144°
2026-05-04 12:41 51.82185 6.44056 40982 ft 486 kts 144°
2026-05-04 12:41 51.77032 6.50758 40690 ft 486 kts 144°
2026-05-04 12:41 51.75369 6.52915 40538 ft 486 kts 144°
2026-05-04 12:42 51.72722 6.56345 40299 ft 486 kts 145°
2026-05-04 12:42 51.70067 6.59781 40058 ft 485 kts 145°
2026-05-04 12:42 51.67465 6.63143 39825 ft 485 kts 145°
2026-05-04 12:42 51.64837 6.66533 39596 ft 484 kts 145°
2026-05-04 12:43 51.62200 6.69928 39361 ft 483 kts 145°
2026-05-04 12:43 51.59564 6.73318 39128 ft 483 kts 145°
2026-05-04 12:43 51.56937 6.76691 38891 ft 482 kts 146°
2026-05-04 12:43 51.54335 6.80027 38679 ft 481 kts 146°
2026-05-04 12:44 51.51700 6.83400 38309 ft 479 kts 146°
2026-05-04 12:44 51.49133 6.86683 37744 ft 475 kts 146°
2026-05-04 12:44 51.46539 6.89995 37097 ft 474 kts 146°
2026-05-04 12:44 51.43953 6.93290 36441 ft 473 kts 147°
2026-05-04 12:45 51.41381 6.96561 35802 ft 472 kts 147°
2026-05-04 12:45 51.38844 6.99785 35148 ft 472 kts 147°
2026-05-04 12:45 51.36252 7.03072 34388 ft 473 kts 148°
2026-05-04 12:45 51.33676 7.06334 33568 ft 475 kts 148°
2026-05-04 12:46 51.31084 7.09611 32763 ft 475 kts 148°
2026-05-04 12:46 51.28480 7.12883 31953 ft 474 kts 148°
2026-05-04 12:46 51.25749 7.15801 31149 ft 468 kts 156°
2026-05-04 12:46 51.22915 7.18173 30316 ft 466 kts 159°
2026-05-04 12:47 51.20007 7.20471 29374 ft 466 kts 159°
2026-05-04 12:47 51.17089 7.22767 28556 ft 464 kts 159°
2026-05-04 12:47 51.14251 7.25006 27963 ft 457 kts 158°
2026-05-04 12:47 51.11407 7.27250 27360 ft 452 kts 158°
2026-05-04 12:48 51.08626 7.29509 26753 ft 448 kts 157°
2026-05-04 12:48 51.05855 7.31803 26134 ft 444 kts 156°
2026-05-04 12:48 51.03127 7.34064 25524 ft 442 kts 156°
2026-05-04 12:48 51.00373 7.36337 24923 ft 448 kts 156°
2026-05-04 12:49 50.97625 7.38599 24292 ft 448 kts 156°
2026-05-04 12:49 50.94864 7.40871 23666 ft 445 kts 156°
2026-05-04 12:49 50.92112 7.43133 22982 ft 442 kts 156°
2026-05-04 12:49 50.89417 7.45342 22352 ft 438 kts 156°
2026-05-04 12:50 50.86713 7.47556 21762 ft 434 kts 155°
2026-05-04 12:50 50.84035 7.49747 21155 ft 430 kts 155°
2026-05-04 12:50 50.81379 7.51913 20568 ft 426 kts 155°
2026-05-04 12:50 50.78766 7.54043 20000 ft 423 kts 156°
2026-05-04 12:51 50.76139 7.56181 19403 ft 421 kts 155°
2026-05-04 12:51 50.73583 7.58259 18824 ft 417 kts 155°
2026-05-04 12:51 50.70993 7.60361 18253 ft 414 kts 155°
2026-05-04 12:51 50.68485 7.62564 17974 ft 413 kts 149°
2026-05-04 12:52 50.66220 7.65381 17777 ft 415 kts 139°
2026-05-04 12:52 50.64433 7.68893 17003 ft 421 kts 123°
2026-05-04 12:52 50.63051 7.73019 16209 ft 421 kts 119°
2026-05-04 12:52 50.61788 7.77112 15451 ft 418 kts 118°
2026-05-04 12:53 50.60523 7.81229 14786 ft 413 kts 118°
2026-05-04 12:53 50.59278 7.85275 14295 ft 404 kts 118°
2026-05-04 12:53 50.58070 7.89189 13823 ft 395 kts 118°
2026-05-04 12:53 50.56873 7.93056 13274 ft 387 kts 118°
2026-05-04 12:54 50.55712 7.96799 12764 ft 380 kts 118°
2026-05-04 12:54 50.54560 8.00509 12244 ft 373 kts 118°
2026-05-04 12:54 50.53426 8.04150 11721 ft 366 kts 118°
2026-05-04 12:54 50.52327 8.07673 11245 ft 359 kts 118°
2026-05-04 12:55 50.51243 8.11149 11014 ft 346 kts 118°
2026-05-04 12:55 50.50193 8.14510 10998 ft 341 kts 118°
2026-05-04 12:55 50.49141 8.17867 10979 ft 342 kts 118°
2026-05-04 12:55 50.48101 8.21184 10980 ft 342 kts 118°
2026-05-04 12:56 50.47049 8.24535 10993 ft 342 kts 118°
2026-05-04 12:56 50.45991 8.27901 10973 ft 341 kts 118°
2026-05-04 12:56 50.44942 8.31230 10993 ft 342 kts 118°
2026-05-04 12:56 50.43887 8.34575 10974 ft 342 kts 118°
2026-05-04 12:57 50.42829 8.37927 10978 ft 343 kts 118°
2026-05-04 12:57 50.41768 8.41285 10981 ft 343 kts 118°
2026-05-04 12:57 50.40719 8.44599 10979 ft 343 kts 118°
2026-05-04 12:57 50.39656 8.47953 10981 ft 343 kts 118°
2026-05-04 12:58 50.38586 8.51325 10980 ft 343 kts 118°
2026-05-04 12:58 50.37534 8.54637 10977 ft 343 kts 118°
2026-05-04 12:58 50.36465 8.58000 10978 ft 343 kts 118°
2026-05-04 12:58 50.35401 8.61339 10983 ft 342 kts 118°
2026-05-04 12:59 50.34358 8.64617 10938 ft 328 kts 118°
2026-05-04 12:59 50.33373 8.67710 10840 ft 314 kts 119°
2026-05-04 12:59 50.32417 8.70704 10723 ft 300 kts 119°
2026-05-04 12:59 50.31495 8.73584 10515 ft 291 kts 119°
2026-05-04 13:00 50.30603 8.76365 10197 ft 287 kts 120°
2026-05-04 13:00 50.29705 8.79158 9880 ft 285 kts 120°
2026-05-04 13:00 50.28810 8.81938 9499 ft 284 kts 120°
2026-05-04 13:00 50.27931 8.84671 9108 ft 283 kts 120°
2026-05-04 13:01 50.27006 8.87395 8693 ft 280 kts 126°
2026-05-04 13:01 50.25663 8.89496 8299 ft 273 kts 148°
2026-05-04 13:01 50.24051 8.91056 7889 ft 272 kts 153°
2026-05-04 13:01 50.22403 8.92514 7480 ft 270 kts 153°
2026-05-04 13:02 50.20803 8.93920 7082 ft 258 kts 153°
2026-05-04 13:02 50.19268 8.95275 6680 ft 249 kts 154°
2026-05-04 13:02 50.17792 8.96587 6227 ft 243 kts 154°
2026-05-04 13:02 50.16260 8.97740 5752 ft 242 kts 169°
2026-05-04 13:03 50.14650 8.97584 5503 ft 228 kts 207°
2026-05-04 13:03 50.13430 8.96201 5367 ft 216 kts 229°
2026-05-04 13:03 50.12576 8.94290 5165 ft 212 kts 243°
2026-05-04 13:03 50.12000 8.92203 4900 ft 209 kts 249°
2026-05-04 13:04 50.11493 8.90094 4609 ft 208 kts 249°
2026-05-04 13:04 50.11001 8.88033 4324 ft 206 kts 249°
2026-05-04 13:04 50.10510 8.85973 4035 ft 200 kts 249°
2026-05-04 13:04 50.10031 8.83958 3745 ft 195 kts 249°
2026-05-04 13:05 50.09565 8.82000 3481 ft 189 kts 249°
2026-05-04 13:05 50.09114 8.80105 3232 ft 183 kts 248°
2026-05-04 13:05 50.08685 8.78300 2990 ft 172 kts 248°
2026-05-04 13:05 50.08282 8.76604 2770 ft 162 kts 248°
2026-05-04 13:06 50.07895 8.74979 2561 ft 160 kts 248°
2026-05-04 13:06 50.07510 8.73366 2350 ft 161 kts 249°
2026-05-04 13:06 50.07123 8.71738 2129 ft 157 kts 248°
2026-05-04 13:06 50.06762 8.70223 1902 ft 142 kts 249°
2026-05-04 13:07 50.06427 8.68817 1737 ft 135 kts 250°
2026-05-04 13:07 50.06105 8.67464 1573 ft 132 kts 250°
2026-05-04 13:07 50.05787 8.66128 1406 ft 131 kts 248°
2026-05-04 13:07 50.05476 8.64825 1226 ft 129 kts 248°
2026-05-04 13:08 50.05163 8.63511 1045 ft 129 kts 249°
2026-05-04 13:08 50.04843 8.62165 901 ft 136 kts 249°
2026-05-04 13:08 50.04510 8.60766 727 ft 138 kts 248°
2026-05-04 13:08 50.04181 8.59392 516 ft 136 kts 250°
2026-05-04 13:09 50.03862 8.58046 377 ft 128 kts 250°
2026-05-04 13:09 50.03585 8.56892 364 ft 82 kts 250°
2026-05-04 13:09 50.03479 8.56438 362 ft 31 kts 250°
2026-05-04 13:09 50.03403 8.56124 363 ft 35 kts 249°
2026-05-04 13:10 50.03319 8.55761 359 ft 37 kts 256°
2026-05-04 13:10 50.03327 8.55372 356 ft 31 kts 278°
2026-05-04 13:10 50.03354 8.55120 353 ft 20 kts 279°
2026-05-04 13:10 50.03353 8.54895 352 ft 22 kts 255°
2026-05-04 13:11 50.03298 8.54658 356 ft 23 kts 250°
2026-05-04 13:11 50.03288 8.54502 353 ft 11 kts 308°
2026-05-04 13:11 50.03361 8.54450 356 ft 14 kts 342°
2026-05-04 13:11 50.03506 8.54371 358 ft 24 kts 340°
2026-05-04 13:12 50.03615 8.54311 353 ft 14 kts 346°
2026-05-04 13:12 50.03679 8.54392 358 ft 14 kts 72°
2026-05-04 13:12 50.03716 8.54558 360 ft 18 kts 70°
2026-05-04 13:12 50.03760 8.54745 359 ft 19 kts 70°
2026-05-04 13:13 50.03810 8.54955 361 ft 22 kts 70°
2026-05-04 13:13 50.03868 8.55194 363 ft 24 kts 69°
2026-05-04 13:13 50.03908 8.55362 360 ft 26 kts 69°
2026-05-04 13:13 50.03972 8.55628 363 ft 26 kts 70°
2026-05-04 13:14 50.04023 8.55840 361 ft 12 kts 69°
2026-05-04 13:14 50.04028 8.55861 365 ft 0 kts 70°
2026-05-04 13:17 50.04041 8.55912 361 ft 9 kts 65°
2026-05-04 13:18 50.04093 8.55962 366 ft 10 kts
2026-05-04 13:18 50.04178 8.55925 364 ft 14 kts 347°
2026-05-04 13:18 50.04275 8.55953 368 ft 15 kts
2026-05-04 13:18 50.04375 8.55915 367 ft 16 kts 347°
2026-05-04 13:19 50.04485 8.55937 370 ft 16 kts 16°
2026-05-04 13:19 50.04573 8.56047 370 ft 18 kts 66°
2026-05-04 13:19 50.04620 8.56239 369 ft 20 kts 69°
2026-05-04 13:19 50.04657 8.56393 367 ft 12 kts 70°
2026-05-04 13:20 50.04677 8.56511 367 ft 11 kts 93°
2026-05-04 13:20 50.04653 8.56611 368 ft 7 kts 115°
2026-05-04 13:20 50.04641 8.56651 368 ft 2 kts 115°
2026-05-04 13:20 50.04640 8.56655 367 ft 0 kts 115°